Weather Roundup
Issued by NWS

Home | Current Version | Previous Version | Text Only | Print | Product List | Glossary On
Versions: 1 2 3 4 5 6 7 8 9 10 11 12 13 14 15 16 17 18 19 20 21 22 23 24 25 26 27 28 29 30 31 32 33 34 35 36 37 38 39 40 41 42 43 44 45 46 47 48 49 50
000
NZUS93 KARX 160959
HRRWXR

CURRENT HOURLY OBSERVATIONS ACROSS
MUCH OF THE UPPER MISSISSIPPI VALLEY
NATIONAL WEATHER SERVICE LA CROSSE WI
500 AM CDT WED APR 16 2014


...SOUTHEAST MINNESOTA...


CITY           SKY/WX    TMP DP  RH WIND       PRES   REMARKS
ROCHESTER      CLOUDY    32  19  58 SE22      29.99F WCI  19
ROCHESTER/MAYO CLOUDY    32  16  52 E12G21    30.00F WCI  23
WINONA         MOCLDY    34  23  64 SE9       30.09S WCI  26
AUSTIN         CLOUDY    34  19  55 SE22G29   29.93F WCI  22
ALBERT LEA     CLOUDY    34  21  60 SE24G32   29.89F WCI  21
DODGE CENTER   CLOUDY    34  19  55 SE23      29.94F WCI  22
PRESTON        CLOUDY    32  19  58 SE15G21   30.03S WCI  22
OWATONNA       CLOUDY    34  19  55 E23G35    29.91F WCI  22
FARIBAULT      CLOUDY    36  16  44 E14G23    29.94F WCI  27
$$

...ELSEWHERE IN MINNESOTA...


CITY           SKY/WX    TMP DP  RH WIND       PRES   REMARKS
MINNEAPOLIS    CLOUDY    33  17  51 E22       29.99F WCI  21
INTNL FALLS    PTCLDY    17   3  54 E7        30.13R WCI   8
DULUTH         CLOUDY    24  11  57 E9        30.09R WCI  14
RED WING       CLOUDY    36  16  44 E16G23    30.03F WCI  26
REDWOOD FALLS  CLOUDY    34  20  56 E15G26    29.83F WCI  24
MANKATO        CLOUDY    36  19  51 SE23G33   29.89F WCI  24
WORTHINGTON    CLOUDY    37  25  60 SE15      29.73F WCI  28
FAIRMONT       CLOUDY    36  23  60 SE21      29.82F WCI  24
$$

...SOUTHWEST WISCONSIN...


CITY           SKY/WX    TMP DP  RH WIND       PRES   REMARKS
LA CROSSE      CLOUDY    33  17  51 SE9       30.11S WCI  25
PRAIRIE DU CHI MOCLDY    33  18  54 E10G18    30.12S WCI  25
BOSCOBEL       CLOUDY    32  18  56 E5        30.15R WCI  27
LONE ROCK      NOT AVBL
PLATTEVILLE    PTCLDY    30  20  66 E9        30.14S WCI  22
FORT MC COY    CLOUDY    30  18  59 E10       30.14S WCI  21
VIROQUA        CLOUDY    29  20  69 SE12      30.10R WCI  20
WIS DELLS      CLOUDY    29  19  66 E7        30.16S WCI  22
$$

...ELSEWHERE IN WISCONSIN...


CITY           SKY/WX    TMP DP  RH WIND       PRES   REMARKS
MILWAUKEE      MOCLDY    30  22  72 S7        30.24S WCI  23
MADISON        MOCLDY    29  21  72 SE7       30.19R WCI  22
GREEN BAY      CLEAR     25  21  85 S3        30.24R
EAU CLAIRE     NOT AVBL
BLACK RVR FLS  CLOUDY    30  18  59 SE3       30.13S
MEDFORD        CLOUDY    26  18  71 SE6       30.12S WCI  19
WAUSAU         CLOUDY    23  16  74 E5        30.15S WCI  17
WIS RAPIDS     CLOUDY    27  18  69 SE8       30.18S WCI  19
MARSHFIELD     CLOUDY    28  16  60 SE9       30.14S WCI  19
RICE LAKE      NOT AVBL
$$

...NORTHEAST IOWA...


CITY           SKY/WX    TMP DP  RH WIND       PRES   REMARKS
WATERLOO       CLOUDY    35  21  56 SE16      30.00F WCI  25
DUBUQUE        PTCLDY    30  19  63 SE16      30.11S WCI  19
DECORAH        CLOUDY    32  19  59 SE13G18   30.05S WCI  22
MASON CITY     CLOUDY    33  22  63 SE18G29   29.92F WCI  22
CHARLES CITY   CLOUDY    34  19  55 SE20G26   29.99F WCI  22
OELWEIN        CLOUDY   N/A N/A N/A SE23G30   30.04F
$$

...ELSEWHERE IN IOWA...


CITY           SKY/WX    TMP DP  RH WIND       PRES   REMARKS
DES MOINES     CLOUDY    42  26  53 S16       29.92F
IOWA CITY      MOCLDY    33  24  69 SE9       30.09F WCI  25
FORT DODGE     CLOUDY    39  27  60 SE12G17   29.85F WCI  32
MARSHALLTOWN   CLOUDY    36  26  67 SE18      29.96F WCI  26
CEDAR RAPIDS   CLOUDY    35  22  58 SE13      30.04F WCI  26
$$

...NORTHERN ILLINOIS...


CITY           SKY/WX    TMP DP  RH WIND       PRES   REMARKS
CHICAGO-OHARE  PTCLDY    27  19  72 S7        30.24R WCI  19
DUPAGE         FAIR      28  21  75 S8        30.23R WCI  20
CHICAGO-MIDWAY CLEAR     32  21  64 S8        30.25S WCI  25
MOLINE         CLEAR     32  22  66 SE12      30.14F WCI  23
ROCKFORD       PTCLDY    30  22  72 SE10      30.22R WCI  21
STERLING       CLEAR     30  21  69 SE6       30.18S WCI  24
PEORIA         CLEAR     34  22  61 SE6       30.20S WCI  29
$$

NOTE: "FAIR" INDICATES FEW OR NO CLOUDS BELOW 12,000 FEET WITH NO
SIGNIFICANT WEATHER AND/OR OBSTRUCTIONS TO VISIBILITY. WIND
SPEEDS ARE IN MILES-PER-HOUR.



USA.gov is the U.S. government's official web portal to all federal, state and local government web resources and services.